User: anonymous   Login
Location: Abraham Lincoln Continuation High School
(33.9711°N, 117.3662°W)
Time: 17:19:49
(UTC+00:00)
Language:

Iridium 4 Rocket - Orbit

View from above orbital plane
View from above orbital plane
View from above satellite
View from above satellite

Ground track
Ground track

The orbit data is extracted from the following two-line orbital elements,

1 24797U 97020F   21125.44837266  .00000132  00000-0  23738-4 0  9991
2 24797  86.9023 193.9041 0222498 267.7605 100.2309 14.44241812262596
Epoch (UTC): 05 May 2021 10:45:39
Eccentricity: 0.0222498
inclination: 86.9023°
perigee height: 586 km
apogee height: 903 km
right ascension of ascending node: 193.9041°
argument of perigee: 267.7605°
revolutions per day: 14.44241812
mean anomaly at epoch: 100.2309°
orbit number at epoch: 26259

The dashed part of the orbit path shows where the satellite is in the earth's shadow,  

DLR